Tracking 19709 objects as of 20-Jun-2019
HD Live streaming from Space Station
objects crossing your sky now

DELTA 1 DEB

Track DELTA 1 DEB now!
10-day predictions


NORAD ID: 12265
Int'l Code: 1978-026DJ
Perigee: 740.3 km
Apogee: 948.4 km
Inclination: 98.7 °
Period: 101.7 minutes
Semi major axis: 7215 km
RCS: 0.051 m2 (small)
Launch date: March 5, 1978
Source: United States (US)
Launch site: AIR FORCE WESTERN TEST RANGE (AFWTR)

Note: This is SATELLITE DEBRIS
aabbcc
Your satellite tracking list
Your tracking list is empty




NASA's NSSDC Master Catalog

Two Line Element Set (TLE):
1 12265U 78026DJ  19170.40076876  .00000318  00000-0  16458-3 0  9994
2 12265  98.6743 325.6358 0144256 275.8147 136.0079 14.16504526950197
Source of the keplerian elements: AFSPC